RH
22 16 13 13 12 12 11 13 15 14 12 12 18 20 19 18 17 20 20 18 16 10 8 8 9 8 8 12 11 11 11 11 12 13 11 9 10 11 12 13 14 14 13
20 16 15 12 11 10 11 13 17 16 15 13 15 18 19 19 17 22 22 16 16 11 8 8 8 7 7 8 12 12 11 11 12 15 14 11 8 9 10 13 14 16 17
20 19 13 11 11 10 12 15 19 19 19 16 16 20 19 20 13 17 20 20 13 11 8 8 9 9 10 10 12 13 13 13 13 13 13 11 9 9 9 12 14 15 15
14 14 14 12 11 11 13 20 24 22 21 19 17 23 26 24 19 15 10 12 9 9 9 9 10 11 11 11 11 11 11 10 11 12 12 11 10 10 6 9 15 16 16
16 17 13 12 11 12 17 26 27 22 21 23 28 22 25 28 27 22 10 4 6 9 11 11 12 13 13 13 13 13 14 14 13 12 12 12 11 10 8 5 13 15 15
17 15 14 13 13 15 20 32 31 26 24 30 27 28 28 27 25 29 28 24 14 6 8 12 14 13 12 13 13 13 12 12 11 10 10 11 10 8 5 3 10 13 14
16 16 16 17 18 19 28 35 33 32 35 32 32 36 32 29 31 29 28 29 30 30 28 22 15 14 12 13 13 12 10 8 7 7 8 9 10 10 7 3 6 13 14
20 22 20 19 21 30 38 39 34 42 39 36 42 38 34 34 34 34 35 36 36 37 37 36 34 33 32 31 30 30 30 28 24 17 11 10 11 13 13 14 12 11 12
27 26 21 18 20 34 42 41 35 45 40 39 41 28 29 30 28 27 28 30 33 34 34 35 37 39 41 42 41 38 35 32 30 28 28 26 19 14 14 14 14 14 15
30 29 27 22 22 31 46 48 41 46 47 38 38 29 32 34 34 36 37 36 31 30 30 27 27 28 30 31 31 34 35 35 33 30 28 25 24 24 24 25 26 27 27
31 29 29 23 21 38 55 53 44 45 53 40 34 32 34 35 36 39 41 42 40 37 33 31 31 32 32 30 27 26 23 20 19 20 23 23 22 21 19 15 12 9 4
34 35 32 26 20 21 48 53 46 48 50 49 37 36 39 41 37 38 40 38 40 42 38 34 31 30 30 30 30 32 33 33 32 27 20 15 12 8 5 4 3 4 6
36 37 32 28 22 24 26 52 48 52 50 54 39 38 44 40 36 41 46 46 45 44 43 39 36 32 32 30 30 30 23 18 19 20 19 15 11 6 5 8 13 17 23
33 35 31 31 26 28 36 34 50 56 60 56 51 44 48 42 44 46 43 49 43 36 37 42 40 33 31 30 22 14 10 8 9 12 12 11 11 13 17 21 25 26 29
28 27 30 30 28 28 51 47 56 68 67 62 63 62 52 49 49 47 49 45 35 37 42 48 43 39 36 26 23 13 11 13 20 29 36 37 36 36 35 33 32 30 29
32 24 24 25 28 30 58 75 78 80 80 71 64 65 60 56 50 50 49 43 45 48 48 44 41 41 41 39 27 14 11 15 23 32 35 36 34 32 30 29 27 24 22
32 26 21 22 26 31 51 80 84 75 71 70 68 68 61 53 51 50 41 44 48 46 46 49 49 48 42 25 14 9 11 23 34 40 42 41 38 34 28 24 22 21 21
26 23 18 20 25 36 52 76 83 64 75 71 68 62 52 50 49 49 44 49 49 47 49 49 44 36 26 19 15 11 15 31 42 45 42 38 34 31 28 25 22 20 19
24 24 14 18 28 37 46 71 69 73 76 65 60 52 45 47 47 51 52 50 44 45 46 41 38 31 20 18 17 16 32 44 42 36 32 28 26 24 22 20 20 21 23
23 25 13 14 27 35 42 66 65 73 67 61 58 47 47 46 37 29 50 48 46 44 44 39 24 13 12 14 18 29 43 40 35 31 29 26 25 24 28 31 31 31 30
21 27 27 20 23 37 42 59 64 67 62 61 50 48 49 32 22 40 44 43 41 34 21 12 12 10 20 50 51 45 43 39 33 29 28 32 34 34 33 33 32 31 31
21 20 33 32 22 33 45 57 63 67 64 60 52 50 47 38 40 44 40 29 20 14 14 17 14 38 53 49 45 37 30 30 33 36 36 35 35 35 35 34 32 32 32
25 22 22 33 26 29 42 51 63 68 64 61 54 50 58 57 52 49 41 23 14 17 19 18 50 56 47 42 34 35 38 39 39 39 40 39 37 35 34 33 33 32 28
32 30 25 29 39 39 35 44 55 64 62 59 54 51 57 59 56 46 24 15 17 22 21 48 58 42 34 36 40 39 41 43 40 40 41 38 35 32 30 27 24 21 18
35 34 30 28 34 40 34 40 49 57 58 55 51 54 57 60 53 29 15 15 20 22 50 58 39 33 41 42 43 46 44 43 45 44 37 33 31 30 26 21 15 12 12
34 33 32 35 33 17 18 28 40 47 49 48 46 54 55 51 34 17 15 21 32 59 57 39 36 43 42 46 48 48 44 50 49 40 32 27 24 25 24 18 14 16 16
Wind_Speed
16 15 15 15 17 17 18 18 17 17 15 11 9 8 8 9 9 10 13 15 17 16 17 18 20 20 19 19 19 21 23 22 22 22 21 21 21 21 20 20 17 14 12
16 16 17 17 17 16 17 18 17 16 14 12 10 10 10 10 10 12 15 17 18 18 18 19 20 20 21 22 22 22 23 23 23 24 25 26 26 25 23 22 19 16 14
19 18 18 19 18 18 17 18 17 15 12 12 10 10 10 11 11 13 17 18 19 19 18 18 18 19 19 20 21 23 25 25 27 28 29 30 29 29 27 25 22 20 19
21 19 20 21 21 19 18 17 16 14 13 13 12 11 10 10 11 14 17 19 19 20 19 19 19 19 19 20 22 23 26 28 31 33 32 32 32 32 31 29 26 25 24
21 20 21 22 21 20 18 17 16 14 13 12 12 12 12 12 12 13 13 17 19 20 20 20 21 21 22 24 25 26 28 28 30 32 33 34 34 34 33 32 30 28 28
20 22 21 21 19 18 17 16 15 13 12 11 12 13 12 13 14 15 15 15 15 19 23 24 25 25 26 27 28 30 31 32 33 32 33 33 33 33 33 33 32 31 30
20 20 20 19 20 19 17 16 15 13 11 11 11 12 12 12 14 16 17 18 19 21 21 22 23 24 24 26 27 28 29 30 31 31 32 31 31 31 30 31 33 34 35
17 17 19 19 20 19 18 17 16 14 12 11 10 10 10 10 12 15 17 18 20 22 23 26 26 28 27 29 30 31 31 32 32 32 33 33 33 33 34 33 34 36 37
15 15 17 19 21 21 21 19 17 16 15 13 11 9 8 7 8 10 12 15 16 19 22 25 26 28 29 30 32 33 34 35 36 36 35 35 36 36 37 38 39 41 43
15 17 19 21 22 23 22 21 19 19 17 15 15 12 11 12 11 14 16 18 18 19 21 21 23 24 25 26 29 31 34 36 37 38 39 38 38 38 39 40 41 42 43
17 18 17 20 23 24 23 23 22 23 19 18 17 15 14 13 15 18 20 22 22 22 23 24 25 26 28 29 30 31 33 35 37 37 38 39 38 39 40 42 42 44 43
20 21 20 21 22 25 27 25 26 25 23 21 19 18 17 18 21 26 29 31 30 28 28 28 29 30 31 33 34 36 38 38 39 39 39 40 41 40 40 40 40 39 37
23 21 22 23 23 24 28 28 26 26 26 24 22 20 22 23 26 29 32 31 32 33 33 33 32 33 34 35 36 38 38 37 38 39 40 40 41 41 40 39 38 38 37
23 23 24 26 25 25 23 27 27 27 27 27 23 23 23 25 29 32 33 34 36 36 36 35 33 33 35 37 38 39 38 37 36 36 37 38 38 39 39 39 40 40 40
22 26 28 26 26 23 22 23 25 26 27 28 27 26 25 28 28 31 32 32 33 32 31 28 30 31 33 34 36 37 36 35 35 35 36 37 38 38 39 40 41 42 43
23 25 28 27 27 25 24 22 23 24 25 28 30 27 28 30 30 31 33 32 27 26 25 27 29 31 33 36 38 39 38 37 36 37 37 38 39 40 41 42 43 43 44
23 28 28 28 26 26 24 22 22 22 23 25 27 27 28 30 30 31 31 26 24 26 29 31 32 34 37 39 39 39 38 37 38 38 39 40 41 43 44 44 44 45 46
26 28 30 27 24 25 24 24 22 21 21 22 23 25 28 30 29 31 27 25 27 30 33 36 38 39 40 41 43 43 40 39 40 41 42 43 43 44 45 46 48 49 50
27 28 29 28 24 24 25 25 23 21 20 20 23 24 27 28 31 31 30 28 31 35 37 38 40 42 43 43 45 44 40 39 41 42 43 44 46 47 48 50 52 54 56
28 28 28 27 24 23 26 26 24 22 20 21 24 27 28 29 31 32 29 30 34 37 40 44 45 44 43 42 40 40 39 39 42 44 46 48 50 52 55 57 59 61 63
29 30 28 28 25 24 26 28 25 22 21 23 24 27 29 30 26 27 30 33 37 41 43 43 46 44 36 32 34 38 40 42 44 46 49 53 55 57 60 62 64 66 67
29 30 31 28 28 27 26 27 26 24 24 24 26 28 28 26 26 29 33 37 40 41 43 45 42 37 37 37 39 40 41 45 48 51 54 56 60 61 64 67 68 68 68
30 27 31 31 29 27 24 28 30 28 28 28 30 30 30 31 30 34 38 40 41 44 45 42 38 39 41 43 43 45 46 47 50 52 56 60 63 65 66 67 65 64 64
33 30 30 33 31 28 27 27 29 31 31 32 33 32 34 34 35 38 41 41 43 45 43 40 40 42 43 45 50 52 55 58 58 57 55 61 63 63 63 62 63 65 68
33 33 31 32 31 29 28 28 30 32 34 35 36 36 37 37 39 41 42 42 43 43 41 42 43 45 47 49 52 56 58 62 66 67 64 64 60 58 59 62 65 69 74
32 32 30 29 29 28 31 32 32 34 36 37 38 39 39 41 42 41 42 42 41 41 42 44 46 49 51 55 58 60 63 66 67 70 70 69 69 65 66 69 73 78 83
Wind_Direction
264 277 285 289 288 290 292 293 296 299 300 301 306 308 303 297 277 255 260 256 256 255 254 251 251 251 250 249 255 258 260 261 263 267 272 274 274 278 273 268 268 273 283
270 277 281 283 287 290 291 291 293 298 307 312 302 292 297 293 280 263 258 259 259 261 257 254 253 254 254 255 254 257 259 260 262 268 273 275 276 276 273 266 265 267 273
273 277 284 285 288 289 288 288 293 299 307 303 297 293 280 279 286 264 263 267 266 264 263 260 258 258 258 260 259 260 263 265 266 270 273 272 270 275 274 267 264 264 269
276 280 281 284 285 286 286 287 292 295 300 305 300 292 279 282 287 278 268 265 264 266 266 261 261 265 269 271 272 272 272 272 271 270 269 268 271 273 275 268 264 264 268
272 273 274 276 280 283 282 283 285 288 293 299 307 298 290 281 280 290 291 274 265 263 266 269 271 274 278 278 276 274 274 274 274 273 270 268 271 274 274 266 264 264 266
265 268 271 274 276 275 276 275 278 281 287 292 292 298 295 285 277 281 288 292 292 281 273 273 276 280 280 281 282 280 278 277 275 274 275 273 273 273 272 263 262 263 263
255 261 269 274 276 274 270 270 271 275 280 285 294 295 295 290 280 278 277 281 281 282 283 282 281 280 280 280 281 284 284 284 282 280 278 275 274 274 274 272 266 264 263
256 259 266 268 270 270 267 263 263 265 270 277 283 288 286 290 288 286 285 283 280 278 278 277 277 277 279 279 280 279 279 280 279 278 278 277 275 274 274 273 271 271 271
252 261 266 266 264 260 261 259 256 256 261 266 267 271 279 304 308 304 301 295 290 286 282 280 280 279 279 278 278 279 279 279 278 278 277 277 276 275 274 274 273 272 273
247 254 264 265 263 259 256 254 250 248 256 260 259 265 278 289 297 301 307 304 302 299 295 295 293 290 289 289 286 284 282 280 279 280 279 277 276 276 275 275 276 275 275
250 255 270 275 269 261 255 253 250 249 256 259 259 265 274 282 288 293 296 299 295 293 292 292 291 293 293 293 291 291 288 286 284 282 281 281 280 279 279 278 277 277 276
255 253 266 272 273 266 257 254 252 250 253 261 261 265 272 281 290 296 299 296 294 293 293 292 294 295 293 293 291 290 288 286 285 284 283 282 281 279 279 278 277 275 275
255 260 261 265 271 269 261 256 254 252 253 259 259 265 275 284 287 292 296 297 299 298 294 291 292 294 294 295 297 296 294 290 286 283 281 280 279 279 279 278 278 278 278
249 253 260 265 274 271 270 259 255 252 256 260 262 269 274 281 285 287 290 297 296 293 295 289 290 295 297 298 302 301 299 296 294 291 288 286 285 285 286 285 284 284 283
250 241 248 258 269 268 265 263 264 262 260 264 266 270 275 277 283 289 294 296 295 299 294 294 295 298 297 301 303 300 298 295 291 290 290 289 289 289 288 288 288 287 287
250 251 249 253 263 268 261 264 265 265 265 266 267 273 276 280 285 290 294 295 296 302 302 300 299 298 299 301 302 300 297 292 289 287 287 287 288 288 287 286 285 285 285
245 254 253 251 260 267 260 261 262 264 265 267 270 271 278 279 286 292 293 288 296 296 297 299 298 299 301 301 300 297 294 291 289 287 286 285 285 284 284 284 284 283 281
240 249 254 253 258 262 258 251 257 259 261 267 268 271 275 280 287 291 287 286 291 295 300 302 301 303 302 302 301 298 294 291 289 289 287 287 285 285 284 283 284 284 284
240 247 251 250 256 259 255 247 250 252 259 266 267 271 276 281 289 288 282 285 291 295 295 294 294 294 293 294 295 293 291 290 289 289 289 288 287 287 286 286 287 285 285
238 244 251 250 254 259 253 243 246 250 258 265 266 271 278 282 288 286 290 290 291 292 295 298 298 296 294 293 292 293 292 291 289 290 290 290 290 291 291 291 291 291 290
238 238 248 253 254 257 254 242 243 253 261 262 266 275 282 288 284 289 291 293 295 297 299 300 299 300 300 299 295 293 292 290 292 293 294 294 294 295 295 295 294 293 292
240 236 239 250 250 253 253 244 247 257 260 268 273 278 286 286 285 290 295 297 297 299 301 300 300 299 297 297 296 294 293 297 298 298 298 298 298 297 297 296 294 293 291
236 239 238 244 246 250 256 249 249 255 261 271 274 279 283 284 289 294 296 297 299 301 300 300 298 297 297 298 297 297 296 295 295 294 296 296 296 295 294 293 293 292 291
233 238 241 242 246 249 251 252 251 255 262 268 274 278 280 287 291 293 295 297 298 298 297 297 298 297 299 301 303 303 302 301 299 296 294 293 293 293 292 291 290 290 289
231 236 242 243 245 251 251 252 253 257 263 268 272 274 281 286 290 294 295 295 296 297 297 298 300 301 301 301 302 301 300 300 300 300 299 297 296 294 292 291 290 290 290
234 237 241 242 245 250 250 252 255 259 263 269 271 275 280 286 290 293 294 295 297 298 299 300 300 302 302 302 301 300 299 299 299 300 299 298 297 296 293 291 292 292 292